Regional Weather Roundup
Issued by NWS Upton, NY

Current Version | Previous Version | Graphics & Text | Print | Product List | Glossary Off
Versions: 1 2 3 4 5 6 7 8 9 10 11 12 13 14 15 16 17 18 19 20 21 22 23 24 25 26 27 28

000
ASUS41 KOKX 230502
RWROKX

REGIONAL WEATHER ROUNDUP
NATIONAL WEATHER SERVICE NEW YORK NY
100 AM EDT TUE AUG 23 2016

NOTE: "FAIR" INDICATES FEW OR NO CLOUDS BELOW 12,000 FEET WITH NO
SIGNIFICANT WEATHER AND/OR OBSTRUCTIONS TO VISIBILITY.

NYZ071-072-176-178-NJZ106-104-230600-
NEW YORK CITY METRO AREA

CITY           SKY/WX    TMP DP  RH WIND       PRES   REMARKS
Central Park   CLEAR     65  49  56 CALM      30.25R
LaGuardia APRT CLEAR     70  48  45 N8        30.22R
Kennedy INTL   CLEAR     68  46  45 CALM      30.23R
Newark/Liberty CLEAR     67  47  48 NW6       30.23R
Bronx Bot Gard   N/A     63  46  55 NE2       30.25R
Wall St Helipt CLEAR     70  52  52 CALM      30.23R
Teterboro      CLEAR     64  48  56 E3        30.22R
$$

NYZ177-179-078>081-230600-
LONG ISLAND NEW YORK

CITY           SKY/WX    TMP DP  RH WIND       PRES   REMARKS
Farmingdale    CLEAR     64  51  62 CALM      30.22R
MacArthur/ISP  CLEAR     63  51  65 NW3       30.21S
Shirley        CLEAR     60  50  69 N6        30.22R
Riverhead      NOT AVBL
Westhampton    CLEAR     57  48  72 CALM      30.23R
Southampton      N/A     66  52  59 N3        30.17S
Bridgehampton  NOT AVBL
East Hampton   FAIR      58  51  77 CALM      30.20S
Montauk          N/A     67  53  61 NW6       30.21R
$$

NYZ052-065-067-230600-
HUDSON VALLEY

CITY           SKY/WX    TMP DP  RH WIND       PRES   REMARKS
White Plains   CLEAR     58  49  72 N5        30.22R
Newburgh       CLEAR     55  52  88 W7        30.24R
Montgomery     CLEAR     53  51  93 SW3       30.23R
Poughkeepsie   CLEAR    N/A N/A N/A MISG      30.21S
Albany         CLEAR     56  48  74 NW6       30.22R
$$

NJZ001-105-106-008-010-013-015-019>022-104-230600-
NEW JERSEY

CITY           SKY/WX    TMP DP  RH WIND       PRES   REMARKS
Newark/Liberty CLEAR     67  47  48 NW6       30.23R
Teterboro      CLEAR     64  48  56 E3        30.22R
Caldwell       PTCLDY    60  52  74 CALM      30.24R
Morristown     CLEAR     54  54 100 CALM      30.24R
Somerville     CLEAR     56  53  90 NW3       30.22R
Linden         FAIR      64  49  58 CALM      30.25R
Sussex         CLEAR     53  52  96 CALM      30.25R
Abdover          N/A     53  51  93 CALM      30.25R
Trenton        CLEAR     61  50  67 CALM      30.24R
Millville      PTCLDY    62  57  83 CALM      30.24R
Atlantic City  CLEAR     60  51  72 N5        30.24R
Wrightstown    CLEAR     59  52  77 CALM      30.21R
Toms River     CLEAR     55  51  86 CALM      30.24R
Belmar         CLEAR     61  51  70 NW5       30.24R
$$

PAZ047>061-062-071-230600-
EASTERN PENNSYLVANIA

CITY           SKY/WX    TMP DP  RH WIND       PRES   REMARKS
Philadelphia   CLEAR     66  50  56 NE7       30.24R
Allentown      PTCLDY    58  53  84 CALM      30.25R
Scranton       CLEAR     55  50  83 E6        30.25R
$$

CTZ002-004>006-009-010-012-RIZ004-006-007-MAZ004-011-015-230600-
SOUTHERN NEW ENGLAND
 IN CT

CITY           SKY/WX    TMP DP  RH WIND       PRES   REMARKS
Bradley INTL   CLEAR     59  48  67 W5        30.21R
Hartford       CLEAR     66  48  52 CALM      30.20R
Danbury        CLEAR     52  50  93 CALM      30.24R
Wtrbury/Oxford   N/A     54  46  76 N3        30.24S
Bridgeport     CLEAR     62  50  64 NW6       30.22R
Meriden        CLEAR     56  51  84 CALM      30.21R
New Haven      CLEAR     58  48  69 CALM      30.22R
Chester        FAIR      59  50  72 NW5       30.22R
Groton         CLEAR     59  52  77 CALM      30.20R
Wilimantic     CLEAR     56  54  93 CALM      30.21R

 IN RI

CITY           SKY/WX    TMP DP  RH WIND       PRES   REMARKS
Providence     CLEAR     60  51  72 SW5       30.19R
Block Island   CLEAR     64  52  64 NW6       30.20R
Westerly       CLEAR     60  50  69 CALM      30.20R
 IN MA

CITY           SKY/WX    TMP DP  RH WIND       PRES   REMARKS
Boston         CLEAR     65  48  54 W9        30.17R
Worcester      CLEAR     56  46  69 W12       30.20R
Westfield      CLEAR     52  51  97 CALM      30.21R
Provincetown   CLEAR     65  55  70 NW12      30.16R
Nantucket      CLEAR     67  47  48 N17       30.15R
$$

ANZ330-335-338-340-345-350-353-355-230600-
COASTAL MARINE OBSERVATIONS


STATION/POSITION TIME  SKY/WX   TEMP    WIND        PRES    VSBY  WAVE
                                AIR SEA DIR/SP/G                  HT/PER
                 (UTC)          (F)     (DEG/KT/KT) (MB)    (MI)  (FT/S)
NY HARB ENTRANCE 0350            72 77  350/ 14/ 16 1022.4          2/ 3
20S FIRE ISLAND  0350            72 77   10/ 17/ 19 1022.1          3/ 4
GREAT SOUTH BAY  0400            69 81  340/  8/ 10   N/A
23 SSW MONTAUK P 0350            70 74  330/ 16/ 17 1022.3          3/ 4
15 E BARNEGAT LI 0400               76                N/A           4/ 5
HUDSON CANYON    0350            74 78              1021.4          4/ 6
KINGS POINT      0400            70 75              1022.9
EXECUTION ROCKS  0400            70     360/  6/  8   N/A
CENTRAL LI SOUND 0400            70 75  350/ 10/ 14   N/A           1/ 3
EASTERN LI SOUND 0400            67 70  340/  8/ 10   N/A
ROBBINS REEF     0406            70     330/  8/ 11 1022.4
$$


>>>>>>>>>>>>>>>>>>>>>>>>>>>> KEY <<<<<<<<<<<<<<<<<<<<<<<<<<<
>                                                          <
>     SKY/WX - Sky Condition/Present Weather               <
>     TMP    - Temperature in Fahrenheit                   <
>     DP     - Dew Point in Fahrenheit                     <
>     RH     - Relative Humidity in Percent                <
>     WIND   - Direction (from) and Speed in MPH           <
>     PRES   - Mean Sea Level Pressure (inches of Hg)      <
>     WCI    - Wind Chill Index                            <
>     VSB    - VISIBILITY IN MILES                         <
>     HX     - HEAT INDEX                                  <
>     TC     - TEMPERATURE IN CELSIUS                      <
>     VRB    - VARIABLE WIND DIRECTION                     <
>                                                          <
>>>>>>>>>>>>>>>>>>>>>>>>>>>> KEY <<<<<<<<<<<<<<<<<<<<<<<<<<<




USA.gov is the U.S. government's official web portal to all federal, state and local government web resources and services.